TimePDT,TemperatureF,Dew PointF,Humidity,Sea Level PressureIn,VisibilityMPH,Wind Direction,Wind SpeedMPH,Gust SpeedMPH,PrecipitationIn,Events,Conditions,WindDirDegrees,DateUTC
12:53 AM,51.1,43.0,74,29.88,10.0,South,5.8,-,N/A,,Clear,170,2013-07-21 07:53:00
1:53 AM,52.0,44.1,74,29.87,10.0,West,3.5,-,N/A,,Clear,260,2013-07-21 08:53:00
2:53 AM,46.0,42.1,86,29.88,10.0,Calm,Calm,-,N/A,,Clear,0,2013-07-21 09:53:00
3:53 AM,43.0,41.0,93,29.88,10.0,Calm,Calm,-,N/A,,Clear,0,2013-07-21 10:53:00
4:53 AM,45.0,39.9,82,29.88,10.0,WSW,3.5,-,N/A,,Clear,250,2013-07-21 11:53:00
5:53 AM,42.1,39.9,92,29.89,10.0,Calm,Calm,-,N/A,,Clear,0,2013-07-21 12:53:00
6:53 AM,51.1,44.1,77,29.89,10.0,Calm,Calm,-,N/A,,Clear,0,2013-07-21 13:53:00
7:53 AM,63.0,46.9,56,29.88,10.0,Calm,Calm,-,N/A,,Clear,0,2013-07-21 14:53:00
8:53 AM,72.0,44.1,37,29.90,10.0,Calm,Calm,-,N/A,,Clear,0,2013-07-21 15:53:00
9:53 AM,75.9,43.0,31,29.88,10.0,NW,4.6,-,N/A,,Clear,320,2013-07-21 16:53:00
10:53 AM,82.0,39.0,22,29.87,10.0,Variable,4.6,-,N/A,,Clear,0,2013-07-21 17:53:00
11:53 AM,84.9,35.1,17,29.86,10.0,NNE,3.5,-,N/A,,Clear,30,2013-07-21 18:53:00
12:53 PM,87.1,35.1,16,29.85,10.0,NNE,3.5,-,N/A,,Clear,20,2013-07-21 19:53:00
1:53 PM,90.0,34.0,14,29.83,10.0,NW,8.1,-,N/A,,Clear,310,2013-07-21 20:53:00
2:53 PM,91.9,32.0,12,29.82,10.0,NW,6.9,-,N/A,,Clear,320,2013-07-21 21:53:00
3:53 PM,91.9,30.9,11,29.82,10.0,NW,10.4,-,N/A,,Clear,320,2013-07-21 22:53:00
4:53 PM,91.0,34.0,13,29.81,10.0,NW,9.2,-,N/A,,Clear,320,2013-07-21 23:53:00
5:53 PM,89.1,36.0,15,29.80,10.0,NW,10.4,-,N/A,,Clear,320,2013-07-22 00:53:00
6:53 PM,84.0,37.9,19,29.80,10.0,NW,10.4,-,N/A,,Clear,320,2013-07-22 01:53:00
7:53 PM,80.1,32.0,17,29.80,10.0,NW,13.8,-,N/A,,Clear,320,2013-07-22 02:53:00
8:53 PM,68.0,37.9,33,29.83,10.0,WNW,4.6,-,N/A,,Clear,300,2013-07-22 03:53:00
9:53 PM,61.0,41.0,48,29.86,10.0,SSW,4.6,-,N/A,,Clear,200,2013-07-22 04:53:00
10:53 PM,60.1,39.9,47,29.86,10.0,Calm,Calm,-,N/A,,Clear,0,2013-07-22 05:53:00
11:53 PM,57.9,39.0,49,29.86,10.0,SSW,4.6,-,N/A,,Clear,210,2013-07-22 06:53:00